Date,TemperatureHighF,TemperatureAvgF,TemperatureLowF,DewpointHighF,DewpointAvgF,DewpointLowF,HumidityHigh,HumidityAvg,HumidityLow,PressureMaxIn,PressureMinIn,WindSpeedMaxMPH,WindSpeedAvgMPH,GustSpeedMaxMPH,PrecipitationSumIn
2013-3-1,46,34,28,27,25,22,81,69,47,0.00,40.00,12,4,24,0.00
2013-3-2,56,37,21,28,23,21,100,63,28,0.00,40.00,16,3,22,0.00
2013-3-3,54,36,24,37,28,23,100,75,31,0.00,40.00,17,2,29,0.00
2013-3-4,45,33,17,41,24,6,100,71,28,0.00,40.00,13,-11,22,0.00
2013-3-5,52,26,9,18,12,7,92,60,20,0.00,40.00,4,-13,9,0.00
2013-3-6,62,36,15,22,16,13,95,53,18,0.00,40.00,9,2,19,0.00
2013-3-7,64,42,27,28,20,12,86,48,14,0.00,40.00,12,2,17,0.00
2013-3-8,60,41,26,35,25,21,97,58,24,0.00,40.00,11,2,17,0.00
2013-3-9,36,32,23,36,31,21,100,96,86,0.00,40.00,10,1,17,0.00
2013-3-10,45,27,10,24,17,9,99,72,31,0.00,40.00,7,1,12,0.00
2013-3-11,51,35,22,26,21,17,96,62,27,0.00,40.00,17,4,26,0.00
2013-3-12,56,41,30,30,25,20,87,57,27,0.00,40.00,11,3,22,0.00
2013-3-13,61,41,25,31,24,19,98,59,22,0.00,40.00,13,3,23,0.00
2013-3-14,68,42,25,29,24,19,94,56,15,0.00,40.00,13,2,19,0.00
2013-3-15,69,45,27,31,26,21,95,55,17,0.00,40.00,12,2,21,0.00
2013-3-16,59,43,33,41,31,27,84,64,36,0.00,40.00,11,2,25,0.00
2013-3-17,48,38,27,39,24,7,100,65,22,0.00,40.00,16,3,28,0.00
2013-3-18,48,37,26,18,13,7,65,39,23,0.00,40.00,12,3,25,0.00
2013-3-19,55,40,26,20,8,-7,60,32,9,0.00,40.00,9,2,17,0.00
2013-3-20,53,34,18,33,18,7,95,55,23,0.00,40.00,12,2,21,0.00
2013-3-21,46,35,27,42,30,19,100,82,38,0.00,40.00,11,2,19,0.00
2013-3-22,47,34,22,24,16,7,94,56,20,0.00,40.00,14,3,26,0.00
2013-3-23,31,26,19,22,14,5,78,60,44,0.00,40.00,13,4,21,0.00
2013-3-24,31,20,10,15,7,1,82,57,33,0.00,40.00,14,4,22,0.00
2013-3-25,44,23,5,9,4,-2,82,48,16,0.00,40.00,10,2,17,0.00
2013-3-26,58,35,17,21,15,9,76,48,21,0.00,40.00,12,2,24,0.00
2013-3-27,64,45,29,31,23,16,85,46,19,0.00,40.00,14,3,23,0.00
2013-3-28,67,46,27,27,24,20,82,47,20,0.00,40.00,11,2,18,0.00
2013-3-29,66,47,33,41,30,26,96,55,24,0.00,40.00,14,3,24,0.00
2013-3-30,65,46,31,41,28,-100,100,62,18,0.00,40.00,11,2,21,0.00
2013-3-31,69,45,25,30,22,14,95,50,14,0.00,40.00,11,2,21,0.00